Regional Weather Roundup
Issued by NWS

Home | Current Version | Previous Version | Text Only | Print | Product List | Glossary On
Versions: 1 2 3 4 5 6 7 8 9 10 11 12 13 14 15 16 17 18 19 20 21 22 23 24 25 26 27 28 29 30 31 32 33 34 35 36 37 38 39 40 41 42 43 44 45 46 47 48 49 50
260
ASUS43 KBIS 241402
RWRND

NORTH DAKOTA REGIONAL WEATHER ROUNDUP
NATIONAL WEATHER SERVICE BISMARCK ND
900 AM CDT WED AUG 24 2016

NOTE: "FAIR" INDICATES FEW OR NO CLOUDS BELOW 12,000 FEET WITH NO
SIGNIFICANT WEATHER AND/OR OBSTRUCTIONS TO VISIBILITY.


NDZ001>003-009>011-017-241500-
NORTHWEST NORTH DAKOTA

CITY           SKY/WX    TMP DP  RH WIND       PRES   REMARKS
WILLISTON      PTSUNNY   58  47  66 W22G28    29.99R
MINOT          MOSUNNY   62  52  69 W18       29.91R
MINOT AFB      SUNNY     60  51  72 W17G28    29.89S
$$

NDZ018>021-031>035-040>046-241500-
SOUTHWEST NORTH DAKOTA

CITY           SKY/WX    TMP DP  RH WIND       PRES   REMARKS
BISMARCK       SUNNY     60  50  69 W16       30.01R
DICKINSON      CLOUDY    56  48  74 W18       30.05R
GARRISON         N/A     60  51  72 W14G25    29.95S
HETTINGER ARPT SUNNY     58  48  69 W20G29    30.09S
$$

NDZ004>008-012>016-024-026-027-054-241500-
NORTHEAST NORTH DAKOTA

CITY           SKY/WX    TMP DP  RH WIND       PRES   REMARKS
GRAND FORKS    SUNNY     65  54  67 W14       29.83R
GRND FRKS AFB  SUNNY     64  54  68 W13       29.84R
DEVILS LAKE    SUNNY     60  52  74 W20       29.89R
$$

NDZ022-023-025-028>030-036>039-047>053-241500-
SOUTHEAST NORTH DAKOTA

CITY           SKY/WX    TMP DP  RH WIND       PRES   REMARKS
FARGO          SUNNY     64  53  67 W13       29.88R
JAMESTOWN      SUNNY     61  52  72 W14       29.94R
$$





USA.gov is the U.S. government's official web portal to all federal, state and local government web resources and services.